FW6308 Weather Reports


Display with metric or nautical units.
time (UTC)temp
F
wind
direction
speed
MPH
gust
MPH
rain 1hr
in
rain 24hr
in
rain mn
in
humidity
%
barometer
mb
20220701043032 47 0.0 0.0 0.00 0.20 0.00 98 1019.1
20220701042027 47 0.0 0.0 0.00 0.20 0.00 98 1019.0
20220701041035 47 0.0 0.0 0.00 0.20 0.00 98 1019.0
20220701040020 47 0.0 0.0 0.00 0.22 0.00 98 1019.0
20220701035016 48 0.0 0.0 0.00 0.24 0.00 98 1019.0
20220701034033 48 0.0 0.0 0.00 0.27 0.00 98 1018.9
20220701033028 48 0.0 0.0 0.00 0.27 0.00 98 1018.8
20220701032026 48 0.0 0.0 0.00 0.28 0.00 98 1018.8
20220701031021 48 0.0 0.0 0.00 0.34 0.00 98 1018.8
20220701030026 48 0.0 0.0 0.00 0.35 0.00 98 1018.8
20220701025023 48 0.0 0.0 0.00 0.35 0.00 98 1018.9
20220701024019 48 0.0 0.0 0.00 0.35 0.00 98 1019.0
20220701023016 49 0.0 0.0 0.00 0.35 0.00 97 1018.9
20220701022033 49 0.0 0.0 0.00 0.35 0.00 98 1018.9
20220701021029 49 0.0 0.0 0.00 0.35 0.00 98 1018.9
20220701020033 49 0.0 0.0 0.00 0.35 0.00 97 1018.9
20220701015031 49 0.0 0.0 0.00 0.35 0.00 98 1018.9
20220701014027 49 0.0 0.0 0.00 0.35 0.00 98 1018.9
20220701013022 50 0.0 0.0 0.00 0.35 0.00 97 1019.0
20220701012019 50 0.0 0.0 0.00 0.35 0.00 97 1019.1
20220701011036 50 0.0 0.0 0.00 0.36 0.00 97 1019.1
20220701010020 50 0.0 0.0 0.00 0.37 0.00 97 1019.1
20220701005018 50 0.0 0.0 0.00 0.38 0.00 97 1019.0
20220701004034 51 0.0 0.0 0.00 0.38 0.00 97 1019.0
20220701003030 51 0.0 0.0 0.00 0.38 0.00 97 1019.1
20220701002026 51 0.0 1.0 0.00 0.38 0.00 98 1019.2
20220701001022 51 165 0.0 1.0 0.00 0.38 0.00 97 1019.3
20220701000018 51 0.0 0.0 0.00 0.38 0.00 97 1019.2
20220630235034 52 0.0 0.0 0.00 0.38 0.00 98 1019.3
20220630234030 52 0.0 0.0 0.00 0.38 0.00 97 1019.3
20220630233026 52 0.0 0.0 0.00 0.38 0.00 97 1019.4
20220630232023 52 0.0 0.0 0.00 0.38 0.00 97 1019.4
20220630231017 52 0.0 0.0 0.00 0.38 0.00 97 1019.4
20220630230033 52 0.0 0.0 0.00 0.38 0.00 97 1019.4
20220630225031 53 0.0 0.0 0.00 0.38 0.00 97 1019.5
20220630224026 53 0.0 0.0 0.00 0.38 0.00 97 1019.5
20220630223023 53 0.0 0.0 0.00 0.38 0.00 97 1019.5
20220630222019 54 0.0 0.0 0.00 0.38 0.00 97 1019.5
20220630221036 54 0.0 0.0 0.00 0.38 0.00 96 1019.5
20220630220030 54 0.0 0.0 0.00 0.38 0.00 96 1019.6
20220630215027 55 0.0 2.0 0.00 0.38 0.38 96 1019.5
20220630214022 55 164 0.0 1.0 0.00 0.38 0.38 96 1019.5
20220630213036 55 0.0 1.0 0.00 0.39 0.38 96 1019.5
20220630212033 56 165 0.0 1.0 0.00 0.39 0.38 96 1019.4
20220630211029 56 165 0.0 2.0 0.00 0.39 0.38 96 1019.3
20220630210024 56 165 0.0 1.0 0.00 0.39 0.38 95 1019.2
20220630205021 57 0.0 1.0 0.00 0.39 0.38 95 1019.1
20220630204017 57 0.0 1.0 0.00 0.39 0.38 94 1019.0
20220630203032 58 0.0 1.0 0.00 0.39 0.38 93 1018.9
20220630202029 59 0.0 1.0 0.00 0.39 0.38 93 1018.7
20220630201025 59 0.0 2.0 0.00 0.39 0.38 92 1018.5
20220630200021 60 165 1.0 4.0 0.00 0.39 0.38 91 1018.3
20220630195017 60 164 0.0 4.0 0.00 0.39 0.38 90 1018.2
20220630194033 61 164 1.0 4.0 0.00 0.39 0.38 90 1018.0
20220630193030 61 179 0.0 2.0 0.00 0.39 0.38 88 1017.9
20220630192026 62 178 1.0 3.0 0.00 0.40 0.38 87 1017.9
20220630191022 62 181 1.0 4.0 0.00 0.40 0.38 86 1017.8
20220630190027 62 184 2.0 7.0 0.00 0.40 0.38 84 1017.7
20220630185025 63 176 2.0 6.0 0.00 0.40 0.38 84 1017.6
20220630184020 63 183 3.0 8.0 0.00 0.40 0.38 83 1017.6
20220630183036 63 176 3.0 7.0 0.00 0.40 0.38 84 1017.5
20220630182032 63 170 2.0 7.0 0.00 0.40 0.38 85 1017.4
20220630181028 63 178 3.0 7.0 0.00 0.40 0.38 86 1017.3
20220630180024 63 176 2.0 6.0 0.00 0.40 0.38 86 1017.2
20220630175021 63 189 2.0 6.0 0.00 0.40 0.38 84 1017.1
20220630174037 64 189 3.0 6.0 0.00 0.40 0.38 85 1017.0
20220630173033 64 168 1.0 5.0 0.00 0.40 0.38 87 1017.0
20220630172028 63 119 1.0 2.0 0.00 0.40 0.38 86 1016.9
20220630171036 63 119 1.0 2.0 0.00 0.40 0.38 86 1016.9
20220630170030 62 123 1.0 3.0 0.00 0.40 0.38 87 1016.9
20220630165027 62 123 1.0 5.0 0.00 0.40 0.38 89 1016.9
20220630164024 62 270 2.0 5.0 0.00 0.40 0.38 88 1017.0
20220630163020 63 52 2.0 5.0 0.00 0.40 0.38 88 1016.8
20220630162036 64 58 2.0 4.0 0.00 0.40 0.38 88 1016.8
20220630161032 64 63 1.0 4.0 0.00 0.40 0.38 88 1016.8
20220630160035 64 87 2.0 4.0 0.00 0.40 0.38 87 1016.8
20220630155032 64 87 2.0 4.0 0.00 0.40 0.38 84 1016.8
20220630154027 64 75 1.0 3.0 0.00 0.40 0.38 84 1016.9
20220630153022 64 46 1.0 6.0 0.00 0.40 0.38 86 1016.9
20220630152019 64 352 3.0 8.0 0.00 0.40 0.38 83 1017.0
20220630151035 64 250 5.0 8.0 0.00 0.40 0.38 83 1017.0
20220630150021 64 227 2.0 5.0 0.00 0.40 0.38 87 1016.9
20220630145017 64 158 2.0 7.0 0.00 0.40 0.38 88 1016.9
20220630144034 64 167 3.0 6.0 0.00 0.40 0.38 88 1016.9
20220630143029 63 190 3.0 7.0 0.00 0.40 0.38 88 1016.9
20220630142025 63 209 3.0 6.0 0.00 0.40 0.38 88 1016.9
20220630141021 63 188 2.0 6.0 0.00 0.40 0.38 89 1017.0
20220630140036 62 185 3.0 8.0 0.00 0.40 0.38 89 1016.9
20220630135031 62 173 4.0 8.0 0.00 0.40 0.38 90 1016.9
20220630134027 61 183 3.0 7.0 0.00 0.40 0.38 91 1016.8
20220630133023 61 149 4.0 7.0 0.00 0.40 0.38 93 1016.7
20220630132020 61 182 4.0 6.0 0.00 0.40 0.38 93 1016.8
20220630131035 61 159 2.0 6.0 0.00 0.40 0.38 94 1016.8
20220630130029 61 177 2.0 5.0 0.00 0.40 0.38 95 1016.8
20220630125026 60 192 3.0 6.0 0.00 0.40 0.38 96 1016.8
20220630124021 60 165 2.0 5.0 0.01 0.40 0.38 96 1016.8
20220630123018 60 174 1.0 3.0 0.01 0.40 0.38 95 1016.8
20220630122034 60 192 1.0 5.0 0.02 0.40 0.38 95 1016.7
20220630121031 60 222 3.0 5.0 0.02 0.40 0.38 95 1016.6
20220630120025 60 222 1.0 2.0 0.02 0.40 0.38 96 1016.7
20220630115022 59 215 0.0 3.0 0.02 0.40 0.38 96 1016.6
20220630114019 59 227 1.0 3.0 0.02 0.39 0.37 96 1016.6
20220630113034 59 232 1.0 5.0 0.02 0.39 0.37 96 1016.4
20220630112030 59 243 2.0 5.0 0.02 0.39 0.36 96 1016.5
20220630111026 59 208 2.0 4.0 0.03 0.39 0.36 96 1016.4
20220630110021 59 252 2.0 4.0 0.03 0.39 0.36 96 1016.4
20220630105018 59 240 2.0 7.0 0.05 0.39 0.36 96 1016.3
20220630104034 59 251 2.0 7.0 0.04 0.38 0.35 96 1016.2
20220630103029 59 241 3.0 6.0 0.04 0.37 0.35 96 1016.1
20220630102026 59 235 2.0 9.0 0.06 0.36 0.34 97 1016.0
20220630101021 59 240 4.0 10.0 0.06 0.35 0.33 96 1016.0
20220630100017 59 182 1.0 4.0 0.07 0.35 0.33 97 1015.8
20220630095034 60 221 2.0 4.0 0.06 0.34 0.31 97 1015.7
20220630094030 59 208 2.0 5.0 0.07 0.34 0.31 97 1015.5
20220630093026 60 203 2.0 5.0 0.06 0.33 0.31 97 1015.5
20220630092023 60 172 1.0 4.0 0.04 0.31 0.28 97 1015.4
20220630091019 59 181 2.0 5.0 0.03 0.29 0.27 97 1015.5
20220630090024 59 186 2.0 5.0 0.03 0.28 0.26 97 1015.3
20220630085019 59 183 1.0 4.0 0.03 0.28 0.25 97 1015.2
20220630084036 59 151 1.0 3.0 0.02 0.27 0.24 97 1015.1
20220630083031 59 149 2.0 5.0 0.02 0.27 0.24 97 1015.0
20220630082028 59 167 2.0 5.0 0.03 0.27 0.24 97 1015.1
20220630081024 59 188 2.0 5.0 0.02 0.26 0.24 96 1015.0
20220630080021 59 195 3.0 6.0 0.02 0.25 0.23 97 1014.9
20220630075035 59 190 3.0 6.0 0.01 0.24 0.22 97 1014.7
20220630074032 59 237 1.0 7.0 0.01 0.24 0.22 97 1014.8
20220630073027 59 235 3.0 7.0 0.02 0.24 0.22 97 1014.7
20220630072023 59 195 3.0 6.0 0.01 0.24 0.21 97 1014.6
20220630071020 59 193 3.0 6.0 0.01 0.24 0.21 97 1014.4
20220630070036 59 176 2.0 4.0 0.01 0.24 0.21 97 1014.3
20220630065032 59 171 1.0 5.0 0.02 0.24 0.21 97 1014.2
20220630064027 59 234 1.0 3.0 0.02 0.24 0.21 97 1014.0
20220630063023 59 234 1.0 2.0 0.02 0.23 0.20 97 1014.1
20220630062020 59 234 1.0 2.0 0.02 0.23 0.20 97 1013.9
20220630061036 59 234 0.0 1.0 0.02 0.23 0.20 97 1013.9
20220630060031 58 234 0.0 4.0 0.02 0.23 0.20 97 1013.9
20220630055028 58 241 2.0 4.0 0.02 0.22 0.20 97 1014.0
20220630054024 58 226 1.0 3.0 0.02 0.22 0.20 97 1014.0
20220630053020 59 213 1.0 3.0 0.00 0.20 0.18 97 1014.1
20220630052037 58 217 1.0 3.0 0.01 0.20 0.18 97 1014.0
20220630051032 58 239 1.0 3.0 0.01 0.20 0.18 97 1013.9
20220630050029 58 245 1.0 2.0 0.02 0.20 0.18 97 1013.8
20220630045035 58 247 1.0 4.0 0.04 0.20 0.18 97 1013.7
20220630044029 58 294 1.0 4.0 0.07 0.20 0.18 97 1013.6